Tracking 19794 objects as of 22-Jul-2019
HD Live streaming from Space Station
objects crossing your sky now

COSMOS 2211

Track COSMOS 2211 now!
10-day predictions
COSMOS 2211 is classified as:


NORAD ID: 22182
Int'l Code: 1992-068A
Perigee: 1,407.2 km
Apogee: 1,420.0 km
Inclination: 82.6 °
Period: 113.9 minutes
Semi major axis: 7784 km
RCS: 1.1084 m2 (large)
Launch date: October 20, 1992
Source: Commonwealth of Independent States (former USSR) (CIS)
Launch site: PLESETSK MISSILE AND SPACE COMPLEX (PKMTR)
aabbcc
Your satellite tracking list
Your tracking list is empty




NASA's NSSDC Master Catalog

Two Line Element Set (TLE):
1 22182U 92068A   19203.18721885  .00000030  00000-0  10634-3 0  9995
2 22182  82.5965 132.1420 0008191 120.6145  14.4159 12.63998575234304
Source of the keplerian elements: AFSPC